Weather History for Cut Bank, MT

Change the Weather History Date:

Wednesday, February 27, 2013

  Actual Average Record
Temperature  
Mean Temperature 29 °F 26 °F  
Max Temperature 42 °F 38 °F 71 °F (1992)
Min Temperature 16 °F 15 °F -24 °F (1960)
Degree Days  
Heating Degree Days 36 39  
Month to date heating degree days 946 1104  
Since 1 July heating degree days 5709 6022  
Cooling Degree Days 0 0  
Month to date cooling degree days 0 0  
Year to date cooling degree days 0 0  
Moisture  
Dew Point 16 °F    
Average Humidity 61    
Maximum Humidity 88    
Minimum Humidity 34    
Precipitation  
Precipitation 0.00 in 0.01 in 0.32 in (1989)
Month to date precipitation 0.31 0.20  
Year to date precipitation 0.73 0.40  
Snow  
Snow 0.00 in - - ()
Snow Depth 0.00 in    
Sea Level Pressure  
Sea Level Pressure 30.19 in    
Wind  
Wind Speed 14 mph (SW)    
Max Wind Speed 31 mph    
Max Gust Speed 40 mph    
Visibility 10 miles    
Events      
T = Trace of Precipitation, MM = Missing Value Source: NWS Daily Summary

Daily Weather History Graph

Daily Weather History Graph

Search for Another Location

Airport:

Trip Planner

Search our weather history database for the weather conditions in past years. The results will help you decide how hot, cold, wet, or windy it might be!

Date:

Astronomy

Feb. 27, 2013 Rise Set
Actual Time 7:14 AM MST 6:10 PM MST
Civil Twilight 6:42 AM MST 6:42 PM MST
Nautical Twilight 6:06 AM MST 7:18 PM MST
Astronomical Twilight 5:30 AM MST 7:55 PM MST
Moon 8:53 PM MST (2/27) 7:37 AM MST (2/27)
Length of Visible Light 11h 59m
Length of Day
10h 56m
Waning Gibbous, 96% of the Moon is Illuminated
Feb 27
Waning Gibbous
Mar 4
Last Quarter
Mar 11
New
Mar 19
First Quarter
Mar 27
Full

Hourly Weather History & Observations

Time (MST) Temp. Windchill Dew Point Humidity Pressure Visibility Wind Dir Wind Speed Gust Speed Precip Events Conditions
12:56 AM 21.9 °F 15.7 °F 14.0 °F 72% 30.23 in 10.0 mi SSW 4.6 mph - N/A   Clear
1:56 AM 21.0 °F 14.6 °F 12.9 °F 71% 30.23 in 10.0 mi SSW 4.6 mph - N/A   Clear
2:56 AM 21.9 °F 14.5 °F 12.9 °F 68% 30.21 in 10.0 mi SW 5.8 mph - N/A   Clear
3:56 AM 19.4 °F - 12.2 °F 74% 30.10 in 10.0 mi Calm Calm - N/A   Clear
4:56 AM 17.1 °F 8.7 °F 12.9 °F 84% 30.23 in 10.0 mi SSE 5.8 mph - N/A   Clear
5:56 AM 18.0 °F 7.7 °F 12.9 °F 81% 30.23 in 10.0 mi SSE 8.1 mph - N/A   Partly Cloudy
6:56 AM 16.0 °F 4.4 °F 12.9 °F 88% 30.23 in 10.0 mi SE 9.2 mph - N/A   Mostly Cloudy
7:56 AM 17.1 °F 10.0 °F 12.9 °F 84% 30.24 in 10.0 mi SSE 4.6 mph - N/A   Mostly Cloudy
8:56 AM 26.1 °F 20.5 °F 17.1 °F 69% 30.22 in 10.0 mi SW 4.6 mph - N/A   Overcast
9:56 AM 33.1 °F 20.9 °F 15.1 °F 48% 30.20 in 10.0 mi WSW 21.9 mph 31.1 mph N/A   Overcast
10:56 AM 35.1 °F 23.0 °F 15.1 °F 44% 30.20 in 10.0 mi WSW 24.2 mph 29.9 mph N/A   Overcast
11:56 AM 37.9 °F 28.2 °F 16.0 °F 41% 30.20 in 10.0 mi SW 18.4 mph - N/A   Clear
12:56 PM 41.0 °F 31.1 °F 16.0 °F 36% 30.17 in 10.0 mi WSW 23.0 mph 33.4 mph N/A   Clear
1:56 PM 41.0 °F 30.7 °F 17.1 °F 38% 30.15 in 10.0 mi West 25.3 mph 34.5 mph N/A   Clear
2:56 PM 41.0 °F 29.7 °F 15.1 °F 35% 30.15 in 10.0 mi WSW 31.1 mph 35.7 mph N/A   Clear
3:56 PM 39.0 °F 28.5 °F 16.0 °F 39% 30.15 in 10.0 mi WSW 23.0 mph 34.5 mph N/A   Clear
4:56 PM 37.0 °F 25.4 °F 17.1 °F 44% 30.18 in 10.0 mi WSW 25.3 mph - N/A   Clear
5:56 PM 33.1 °F 21.5 °F 19.0 °F 56% 30.20 in 10.0 mi WSW 19.6 mph - N/A   Clear
6:56 PM 30.2 °F 17.8 °F 19.4 °F 64% 30.09 in 10.0 mi West 19.6 mph - N/A   Clear
7:56 PM 25.0 °F 14.2 °F 18.0 °F 75% 30.25 in 10.0 mi WSW 11.5 mph - N/A   Clear
8:56 PM 28.4 °F 17.0 °F 15.8 °F 59% 30.11 in 10.0 mi West 15.0 mph - N/A   Clear
9:56 PM 27.0 °F 15.2 °F 17.1 °F 66% 30.22 in 10.0 mi West 15.0 mph - N/A   Clear
10:56 PM 26.6 °F 15.7 °F 17.6 °F 69% 30.11 in 10.0 mi West 12.7 mph - N/A   Clear
11:56 PM 25.0 °F 13.1 °F 17.1 °F 72% 30.19 in 10.0 mi West 13.8 mph - N/A   Clear